[[{"header":{"parameterUnit":"m.s-1","parameterCategory":1,"la1":30.2991,"la2":30.254,"lo1":-89.0895,"lo2":-89.0444,"dy":0.0017,"dx":0.0017,"nx":28,"ny":28,"refTime":"2024-08-29T21:00:00:Z","depth":0,"parameterNumber":2,"parameterNumberName":"U-component_of_WINDS"},"data":[0,0,0,0,0,0,0,0,0,0,0,0,0,0,0,0,0,0,0,0,0,0,0,0,0,0,0,0,0,0,0,0,0,0,0,0,0,0,0,0,0,0,0,0,0,0,0,0,0,0,0,0,0,0,0,0,0,0,-4.7763,-4.7764,0,-4.7788,-4.7788,-4.7789,-4.7786,-4.7786,-4.7786,-4.7785,-4.7808,-4.7809,-4.781,0,0,0,0,0,0,0,0,0,0,0,0,0,-4.771,-4.7711,-4.7763,-4.7764,-4.7764,-4.7788,-4.7788,-4.7789,-4.7786,-4.7786,-4.7786,-4.7785,-4.7808,-4.7809,-4.781,0,0,0,0,0,0,0,0,0,0,0,0,0,-4.7734,-4.7711,-4.7763,-4.7766,-4.7766,-4.7788,-4.7789,-4.7789,-4.7787,-4.7786,-4.7785,-4.7785,-4.7807,-4.7809,-4.781,-4.783,0,0,-4.7814,-4.7815,0,0,0,0,0,0,0,0,-4.7732,-4.7735,-4.7765,-4.7766,-4.7766,-4.7784,-4.7778,-4.7803,-4.7787,-4.7779,-4.7785,-4.7785,-4.78,-4.7802,-4.7808,-4.7831,-4.7832,-4.7815,-4.7815,-4.7816,-4.7816,0,0,0,0,0,0,0,-4.7731,-4.7734,-4.7773,-4.7765,-4.7766,-4.7764,-4.7767,-4.7783,-4.7792,-4.7779,-4.7779,-4.7782,-4.78,-4.7807,-4.7808,-4.7833,-4.7814,-4.7816,-4.7817,-4.7817,-4.7872,-4.7872,0,0,0,0,0,0,-4.7729,-4.7733,-4.7772,-4.7774,-4.7748,-4.7766,-4.7769,-4.7779,-4.7792,-4.7794,-4.7783,-4.7782,-4.7804,-4.7807,-4.7809,-4.7832,-4.7816,-4.7817,-4.7818,-4.7871,-4.7872,-4.7872,0,0,0,0,0,0,-4.7728,-4.7732,-4.7771,-4.7753,-4.7758,-4.7767,-4.7778,-4.7779,-4.7786,-4.7795,-4.7796,-4.7788,-4.7804,-4.7807,-4.7825,-4.7833,-4.7818,-4.7819,-4.787,-4.7871,-4.7872,-4.788,0,0,0,0,0,0,-4.7726,-4.7732,-4.7741,-4.7754,-4.7759,-4.7788,-4.7779,-4.778,-4.7788,-4.7788,-4.78,-4.7801,-4.7804,-4.7823,-4.7826,-4.7835,-4.782,-4.787,-4.7871,-4.7872,-4.7879,-4.7881,-4.7883,0,0,0,0,0,-4.7724,-4.7742,-4.7741,-4.7746,-4.7771,-4.7788,-4.7791,-4.7795,-4.7789,-4.7797,-4.7803,-4.7801,-4.7832,-4.7824,-4.7828,-4.7838,-4.7869,-4.787,-4.7872,-4.7878,-4.788,-4.7883,0,0,0,0,0,0,-4.7729,-4.7743,-4.7743,-4.7765,-4.7776,-4.7788,-4.7798,-4.7798,-4.7809,-4.7808,-4.7811,-4.7813,-4.7831,-4.7836,-4.7828,-4.7857,-4.785,-4.7852,-4.7853,-4.7855,-4.7857,-4.7855,-4.7822,0,0,0,0,0,-4.7732,-4.7747,-4.7758,-4.7777,-4.7782,-4.7789,-4.7797,-4.7799,-4.7809,-4.7813,-4.782,-4.7829,-4.7841,-4.7849,-4.786,-4.788,-4.7881,-4.7888,-4.789,-4.7891,-4.7893,-4.7902,-4.7905,-4.7877,-4.7877,-4.7877,0,0,-4.774,-4.775,-4.7758,-4.7778,-4.7786,-4.7799,-4.7793,-4.7807,-4.7817,-4.7815,-4.7832,-4.7837,-4.7848,-4.7866,-4.7874,-4.7871,-4.7901,-4.7893,-4.7894,-4.7895,-4.7904,-4.7906,-4.7909,-4.7878,-4.7878,-4.7877,0,0,-4.776,-4.777,-4.7786,-4.7794,-4.7806,-4.7811,-4.7814,-4.7827,-4.783,-4.7847,-4.7846,-4.7857,-4.7877,-4.7884,-4.789,-4.7912,-4.791,-4.7916,-4.7925,-4.7934,-4.7936,-4.7938,-4.7944,-4.7947,-4.7917,-4.7917,-4.7917,0,-4.7768,-4.7789,-4.7793,-4.7808,-4.7816,-4.7816,-4.783,-4.7838,-4.7853,-4.7858,-4.7854,-4.7879,-4.7886,-4.7905,-4.791,-4.7916,-4.7919,-4.7914,-4.7936,-4.7938,-4.7939,-4.7946,-4.7948,-4.7918,-4.7918,-4.7918,-4.7918,0,-4.7797,-4.7811,-4.7822,-4.7837,-4.7846,-4.7861,-4.7866,-4.7875,-4.7876,-4.788,-4.7897,-4.7905,-4.7917,-4.7922,-4.7923,-4.7941,-4.7938,-4.7935,-4.7928,-4.7943,-4.7948,-4.7951,-4.7919,-4.7918,-4.7918,-4.7918,0,0,-4.7821,-4.7838,-4.7841,-4.7848,-4.7861,-4.7871,-4.7885,-4.7898,-4.7905,-4.7915,-4.7925,-4.7942,-4.7939,-4.7946,-4.7948,-4.7956,-4.7971,-4.7951,-4.7951,-4.7954,-4.7989,-4.7991,-4.7994,-4.797,-4.797,-4.797,-4.7988,0,-4.7841,-4.7867,-4.7871,-4.7893,-4.7905,-4.7904,-4.7916,-4.7925,-4.7929,-4.7939,-4.7944,-4.7955,-4.7951,-4.7955,-4.7963,-4.7967,-4.7978,-4.7966,-4.7978,-4.7978,-4.7975,-4.7997,-4.7999,-4.8016,-4.799,-4.7991,-4.7991,0,-4.7869,-4.788,-4.7903,-4.7914,-4.7919,-4.793,-4.7941,-4.7951,-4.796,-4.7963,-4.797,-4.7971,-4.7983,-4.7976,-4.7993,-4.7985,-4.799,-4.7993,-4.7993,-4.7994,-4.7985,-4.7997,-4.8021,-4.8023,-4.7995,-4.7995,-4.7994,0,-4.7882,-4.7903,-4.792,-4.7925,-4.7938,-4.7945,-4.7951,-4.7959,-4.7966,-4.7976,-4.798,-4.7991,-4.7996,-4.8004,-4.8007,-4.8001,-4.8023,-4.8016,-4.8024,-4.8024,-4.8028,-4.8028,-4.8052,-4.8033,-4.8033,-4.8033,-4.8033,0,-4.7904,-4.7918,-4.7926,-4.7936,-4.7951,-4.7954,-4.7969,-4.7974,-4.7981,-4.7991,-4.7991,-4.8,-4.8004,-4.8013,-4.8015,-4.8028,-4.8031,-4.8032,-4.8032,-4.8031,-4.8031,-4.8034,-4.8033,-4.8034,-4.8034,-4.8033,-4.8033,0,-4.7922,-4.7928,-4.7945,-4.7956,-4.7959,-4.7969,-4.7977,-4.7986,-4.799,-4.8003,-4.8006,-4.8012,-4.8022,-4.8026,-4.8039,-4.804,-4.8055,-4.8054,-4.8052,-4.8052,-4.8059,-4.8058,-4.8086,-4.8089,-4.8069,-4.8069,-4.8069,0,-4.7935,-4.7946,-4.7958,-4.7964,-4.797,-4.7982,-4.7989,-4.7992,-4.7999,-4.801,-4.8017,-4.8028,-4.8037,-4.8054,-4.8058,-4.8068,-4.8067,-4.8076,-4.8069,-4.8067,-4.8066,-4.8065,-4.8066,-4.8077,-4.8078,-4.8078,-4.8078,0,-4.7958,-4.796,-4.7971,-4.7982,-4.7991,-4.7999,-4.8008,-4.8013,-4.8018,-4.8026,-4.8037,-4.8044,-4.8057,-4.8067,-4.8077,-4.8081,-4.808,-4.808,-4.8083,-4.8082,-4.8079,-4.808,-4.8055,-4.808,-4.808,-4.8079,-4.8079,-4.8079,-4.7973,-4.7982,-4.7991,-4.8003,-4.801,-4.8017,-4.8026,-4.8031,-4.8041,-4.8052,-4.8053,-4.8065,-4.8072,-4.8085,-4.809,-4.8098,-4.8096,-4.8099,-4.81,-4.8101,-4.8101,-4.8079,-4.81,-4.81,-4.81,-4.81,-4.81,0,-4.7994,-4.8,-4.8011,-4.8023,-4.8032,-4.8031,-4.804,-4.8047,-4.8057,-4.8065,-4.8073,-4.8085,-4.8095,-4.81,-4.811,-4.8115,-4.8115,-4.8118,-4.8117,-4.8118,-4.8103,-4.81,-4.8118,-4.8118,-4.8118,-4.8118,-4.8118,-4.8118,-4.8007,-4.8021,-4.8024,-4.8042,-4.8047,-4.8059,-4.8064,-4.8071,-4.8077,-4.8091,-4.8099,-4.8103,-4.8109,-4.8118,-4.8127,-4.8128,-4.8131,-4.8134,-4.8135,-4.8121,-4.8119,-4.8117,-4.8114,-4.8135,-4.8135,-4.8149,-4.8149,-4.8149]},{"header":{"parameterUnit":"m.s-1","parameterCategory":1,"la1":30.2991,"la2":30.254,"lo1":-89.0895,"lo2":-89.0444,"dy":0.0017,"dx":0.0017,"nx":28,"ny":28,"refTime":"2024-08-29T21:00:00:Z","depth":0,"parameterNumber":3,"parameterNumberName":"V-component_of_WINDS"},"data":[0,0,0,0,0,0,0,0,0,0,0,0,0,0,0,0,0,0,0,0,0,0,0,0,0,0,0,0,0,0,0,0,0,0,0,0,0,0,0,0,0,0,0,0,0,0,0,0,0,0,0,0,0,0,0,0,0,0,5.158,5.158,0,5.1612,5.1612,5.1613,5.1596,5.1595,5.1594,5.1593,5.1623,5.1624,5.1626,0,0,0,0,0,0,0,0,0,0,0,0,0,5.1499,5.15,5.158,5.158,5.158,5.1612,5.1612,5.1613,5.1596,5.1595,5.1594,5.1593,5.1622,5.1624,5.1626,0,0,0,0,0,0,0,0,0,0,0,0,0,5.1532,5.1501,5.158,5.1576,5.1576,5.1612,5.1612,5.1613,5.1596,5.1595,5.1593,5.1592,5.1621,5.1624,5.1626,5.1666,0,0,5.1633,5.1634,0,0,0,0,0,0,0,0,5.1531,5.1535,5.1576,5.1576,5.1576,5.1599,5.1594,5.1631,5.1596,5.1588,5.1593,5.1592,5.1615,5.1618,5.1627,5.1668,5.1669,5.1634,5.1635,5.1636,5.1637,0,0,0,0,0,0,0,5.1528,5.1534,5.1592,5.1577,5.1577,5.1571,5.1574,5.1601,5.1608,5.1589,5.1588,5.1592,5.1615,5.1625,5.1628,5.1669,5.1634,5.1636,5.1637,5.1638,5.1742,5.1743,0,0,0,0,0,0,5.1527,5.1532,5.1591,5.1593,5.155,5.1574,5.1577,5.1593,5.1608,5.1609,5.1593,5.1591,5.1621,5.1625,5.1628,5.1675,5.1636,5.1638,5.164,5.1741,5.1742,5.1744,0,0,0,0,0,0,5.1525,5.1532,5.159,5.1562,5.1569,5.1576,5.1594,5.1594,5.1603,5.1611,5.1612,5.1602,5.162,5.1625,5.1657,5.1676,5.1639,5.1641,5.1739,5.1741,5.1743,5.1769,0,0,0,0,0,0,5.1523,5.1532,5.1548,5.1563,5.1571,5.1619,5.1595,5.1595,5.1608,5.1606,5.162,5.1621,5.162,5.1653,5.1659,5.1678,5.1643,5.1737,5.174,5.1742,5.1766,5.1771,5.1776,0,0,0,0,0,5.152,5.1554,5.1549,5.1556,5.1592,5.162,5.1625,5.1624,5.161,5.1625,5.163,5.162,5.1673,5.1657,5.1663,5.1683,5.1736,5.1739,5.1742,5.1764,5.177,5.1776,0,0,0,0,0,0,5.1541,5.1556,5.1551,5.1591,5.1605,5.1617,5.1637,5.1631,5.1648,5.1645,5.1642,5.1645,5.1678,5.1684,5.1665,5.1722,5.1702,5.1707,5.1716,5.1722,5.1727,5.1724,5.1645,0,0,0,0,0,5.155,5.1573,5.1585,5.1619,5.1626,5.1631,5.1643,5.1641,5.1655,5.166,5.1667,5.1679,5.1698,5.1711,5.1729,5.1767,5.1769,5.1784,5.1789,5.1793,5.1796,5.1814,5.1821,5.1754,5.1754,5.1754,0,0,5.1569,5.1581,5.1595,5.1623,5.1634,5.1656,5.1636,5.166,5.1676,5.1663,5.1693,5.1699,5.1712,5.1747,5.1762,5.1753,5.1815,5.1797,5.18,5.1801,5.1818,5.1824,5.183,5.1756,5.1755,5.1755,0,0,5.1615,5.1627,5.1656,5.1667,5.1683,5.1685,5.1692,5.1706,5.1709,5.1739,5.173,5.1748,5.1781,5.1791,5.18,5.1848,5.1838,5.1854,5.1878,5.1896,5.1901,5.1906,5.1921,5.1927,5.1857,5.1857,5.1857,0,5.1637,5.1672,5.1671,5.1696,5.1708,5.1698,5.1726,5.1736,5.1756,5.1764,5.1753,5.1794,5.1802,5.1838,5.1849,5.1858,5.1864,5.1851,5.1901,5.1905,5.191,5.1924,5.193,5.1859,5.1859,5.1858,5.1858,0,5.1696,5.172,5.1741,5.1761,5.1775,5.1802,5.1804,5.1818,5.1814,5.1817,5.1847,5.1857,5.1876,5.1884,5.1881,5.1919,5.1912,5.1901,5.1881,5.1918,5.1931,5.1937,5.1861,5.1861,5.186,5.186,0,0,5.1757,5.1776,5.1783,5.1792,5.1808,5.1825,5.185,5.1869,5.188,5.1895,5.1914,5.1942,5.1932,5.1942,5.194,5.1956,5.199,5.1942,5.1943,5.1949,5.203,5.2037,5.2044,5.1985,5.1986,5.1987,5.2028,0,5.1802,5.1847,5.1847,5.1887,5.1908,5.1898,5.1919,5.193,5.1933,5.195,5.1953,5.1972,5.1958,5.1964,5.1979,5.1983,5.2006,5.198,5.2001,5.2002,5.1997,5.2051,5.2059,5.2098,5.2034,5.2034,5.2035,0,5.1862,5.1878,5.1921,5.1932,5.1941,5.196,5.1977,5.1993,5.2005,5.2006,5.2017,5.2012,5.2035,5.2015,5.2046,5.2028,5.2037,5.204,5.2041,5.2042,5.202,5.2052,5.211,5.2116,5.2044,5.2043,5.2042,0,5.19,5.1932,5.1961,5.1969,5.1983,5.1997,5.2003,5.2014,5.2025,5.2039,5.2045,5.2062,5.207,5.2082,5.2081,5.2067,5.2112,5.2092,5.2112,5.2112,5.2121,5.212,5.218,5.2128,5.2128,5.2128,5.2128,0,5.195,5.1976,5.1978,5.1996,5.2024,5.2022,5.205,5.2055,5.2064,5.2081,5.2073,5.2089,5.2087,5.2103,5.2102,5.2126,5.2131,5.2131,5.213,5.2131,5.2131,5.2136,5.2133,5.213,5.2129,5.2129,5.2129,0,5.1997,5.1999,5.203,5.2041,5.2044,5.2064,5.2073,5.2088,5.2091,5.2112,5.2117,5.2121,5.2138,5.2138,5.2159,5.2158,5.2188,5.2184,5.2184,5.2183,5.2202,5.22,5.2266,5.2274,5.2218,5.2219,5.2219,0,5.2028,5.2048,5.2061,5.2072,5.2079,5.2098,5.2109,5.2107,5.2119,5.2132,5.2146,5.2163,5.2177,5.2206,5.2209,5.2224,5.2221,5.2243,5.2223,5.2222,5.2219,5.2218,5.2219,5.2246,5.2247,5.2248,5.2248,0,5.2084,5.2084,5.21,5.2117,5.213,5.2143,5.2155,5.2164,5.2164,5.2177,5.2195,5.2206,5.2226,5.2243,5.2257,5.2262,5.2255,5.2254,5.2259,5.226,5.2259,5.2258,5.2193,5.2253,5.2252,5.2252,5.2252,5.2251,5.2123,5.2139,5.215,5.2168,5.2177,5.2188,5.2203,5.2207,5.2222,5.2239,5.2237,5.2257,5.2266,5.2285,5.2291,5.2305,5.2298,5.2305,5.2307,5.2309,5.231,5.2257,5.2308,5.2308,5.2308,5.2308,5.2308,0,5.2177,5.2183,5.22,5.2216,5.223,5.2222,5.2234,5.2246,5.2264,5.2274,5.2287,5.2307,5.2323,5.2327,5.2342,5.2353,5.2349,5.2356,5.2355,5.2356,5.2317,5.2311,5.2359,5.2359,5.2359,5.2359,5.2359,5.2359,5.2206,5.2233,5.2234,5.2264,5.2269,5.229,5.2297,5.2306,5.2314,5.2337,5.235,5.2352,5.2359,5.2374,5.2388,5.2388,5.2393,5.2402,5.2401,5.2364,5.2359,5.2354,5.2348,5.2403,5.2403,5.2439,5.2439,5.2439]}]]